Powrót do katalogu

STARLINK-5637

AktywnyŁącznośćVLEO
NORAD 55432·PAYLOAD·🇺🇸 United States

Wystrzelony Jan 31, 2023 z Vandenberg Space Force Base

Loading…

Następne Przeloty (najbliższe 24 godziny)

TLE

ŚwieżeSource: CelesTrak SupGP

Epoka: Sep 15, 2026, 02:33 UTC

1 55432C 23014AT  26258.10673611  .00074204  00000+0  62191-2 0  2582
2 55432  70.0017 346.8420 0003464 267.7734  41.2038 14.98289310    10

Śledź STARLINK-5637 w czasie rzeczywistym z AllMySat

Download on the App Store